User: anonymous   Login
Location: Heidgraben
(53.7081°N, 9.6576°E)
Time: 17:04:17
(UTC+00:00)
Language:

Resurs 01 Rocket - Orbit

View from above orbital plane
View from above orbital plane
View from above satellite
View from above satellite

Ground track
Ground track

The orbit data is extracted from the following two-line orbital elements,

1 23343U 94074B   20271.40274348  .00000015  00000-0  95052-5 0  9995
2 23343  97.9885 323.4436 0007002 171.0744 199.4592 14.76837324393673
Epoch (UTC): 27 September 2020 09:39:57
Eccentricity: 0.0007002
inclination: 97.9885°
perigee height: 634 km
apogee height: 644 km
right ascension of ascending node: 323.4436°
argument of perigee: 171.0744°
revolutions per day: 14.76837324
mean anomaly at epoch: 199.4592°
orbit number at epoch: 39367

The dashed part of the orbit path shows where the satellite is in the earth's shadow,  

DLR